Location: Unspecified
(54.1780°N, 0.0000°E)
Time: 01:26:46
(UTC+00:00)

Explorer 7 - Pass Details

Date: 20 June 2019
Orbit: 485 x 680 km, 50.3° (Epoch: 22 July)

Event Time Altitude Azimuth Distance (km) Brightness Sun altitude
Rises 15:10:42 0° 278° (W) 2,979 11.2 43.4°
Reaches altitude 10° 15:13:26 10° 264° (W) 2,088 10.8 43.0°
Maximum altitude 15:17:08 22° 214° (SW) 1,452 10.0 42.5°
Drops below altitude 10° 15:20:54 10° 164° (SSE) 2,113 9.9 42.0°
Sets 15:23:41 0° 149° (SSE) 3,025 10.5 41.6°
